ProjectID,Date,Electric Generation,Electric Utility Import,Facility Electric Load
,YYYY-MM-DD,kW,kW,kW
287,2015-11-01,0.0,,0.0
287,2015-11-02,0.0,,0.0
287,2015-11-03,0.0,,0.0
287,2015-11-04,0.0,,0.0
287,2015-11-05,0.0,,0.0
287,2015-11-06,0.0,,0.0
287,2015-11-07,0.0,,0.0
287,2015-11-08,0.0,,0.0
287,2015-11-09,0.0,,0.0
287,2015-11-10,0.0,,0.0
287,2015-11-11,0.0,,0.0
287,2015-11-12,0.0,,0.0
287,2015-11-13,0.0,,0.0
287,2015-11-14,0.0,,0.0
287,2015-11-15,0.0,,0.0
287,2015-11-16,0.0,,0.0
287,2015-11-17,65.08833333333332,,65.08833333333332
287,2015-11-18,61.57125,,61.57125
287,2015-11-19,6.8183333333333325,,6.8183333333333325
287,2015-11-20,62.651624999999996,,62.651624999999996
287,2015-11-21,52.68258333333333,,52.68258333333333
287,2015-11-22,43.49166666666667,,43.49166666666667
287,2015-11-23,64.44958333333334,,64.44958333333334
287,2015-11-24,56.596916666666665,,56.596916666666665
287,2015-11-25,56.77758333333333,,56.77758333333333
287,2015-11-26,26.734624999999998,,26.734624999999998
287,2015-11-27,40.567083333333336,,40.567083333333336
287,2015-11-28,6.0836250000000005,,6.0836250000000005
287,2015-11-29,56.07708333333333,,56.07708333333333
287,2015-11-30,47.644708333333334,,47.644708333333334
287,2015-12-01,8.003,,8.003
287,2015-12-02,5.829833333333333,,5.829833333333333
287,2015-12-03,28.537166666666668,,28.537166666666668
287,2015-12-04,7.354083333333333,,7.354083333333333
287,2015-12-05,38.314166666666665,,38.314166666666665
287,2015-12-06,25.727166666666665,,25.727166666666665
287,2015-12-07,61.71083333333333,,61.71083333333333
287,2015-12-08,36.54120833333334,,36.54120833333334
287,2015-12-09,40.5895,,40.5895
287,2015-12-10,37.84575,,37.84575
287,2015-12-11,38.14341666666667,,38.14341666666667
287,2015-12-12,50.476875,,50.476875
287,2015-12-13,19.528125,,19.528125
287,2015-12-14,12.245833333333332,,12.245833333333332
287,2015-12-15,15.900791666666668,,15.900791666666668
287,2015-12-16,28.140041666666665,,28.140041666666665
287,2015-12-17,4.188208333333333,,4.188208333333333
287,2015-12-18,24.985833333333332,,24.985833333333332
287,2015-12-19,28.714958333333332,,28.714958333333332
287,2015-12-20,14.643791666666667,,14.643791666666667
287,2015-12-21,21.28575,,21.28575
287,2015-12-22,3.317083333333333,,3.317083333333333
287,2015-12-23,16.15875,,16.15875
287,2015-12-24,15.658833333333334,,15.658833333333334
287,2015-12-25,38.57758333333333,,38.57758333333333
287,2015-12-26,28.340041666666664,,28.340041666666664
287,2015-12-27,3.9862083333333334,,3.9862083333333334
287,2015-12-28,35.093624999999996,,35.093624999999996
287,2015-12-29,0.257875,,0.257875
287,2015-12-30,0.4712083333333333,,0.4712083333333333
287,2015-12-31,14.386208333333334,,14.386208333333334
287,2016-01-01,8.945,,8.945
287,2016-01-02,16.208833333333335,,16.208833333333335
287,2016-01-03,8.644958333333333,,8.644958333333333
287,2016-01-04,5.685458333333333,,5.685458333333333
287,2016-01-05,28.12725,,28.12725
287,2016-01-06,36.25575,,36.25575
287,2016-01-07,33.01920833333333,,33.01920833333333
287,2016-01-08,28.869791666666668,,28.869791666666668
287,2016-01-09,7.901083333333333,,7.901083333333333
287,2016-01-10,7.116833333333333,,7.116833333333333
287,2016-01-11,38.94204166666667,,38.94204166666667
287,2016-01-12,9.600458333333334,,9.600458333333334
287,2016-01-13,22.01625,,22.01625
287,2016-01-14,33.972791666666666,,33.972791666666666
287,2016-01-15,35.73616666666667,,35.73616666666667
287,2016-01-16,12.136916666666666,,12.136916666666666
287,2016-01-17,17.435,,17.435
287,2016-01-18,69.45866666666667,,69.45866666666667
287,2016-01-19,48.98775,,48.98775
287,2016-01-20,54.48283333333333,,54.48283333333333
287,2016-01-21,57.93141666666667,,57.93141666666667
287,2016-01-22,42.829125,,42.829125
287,2016-01-23,14.118791666666667,,14.118791666666667
287,2016-01-24,50.26408333333333,,50.26408333333333
287,2016-01-25,34.373875,,34.373875
287,2016-01-26,15.5405,,15.5405
287,2016-01-27,57.075874999999996,,57.075874999999996
287,2016-01-28,81.32833333333333,,81.32833333333333
287,2016-01-29,17.53954166666667,,17.53954166666667
287,2016-01-30,33.63141666666667,,33.63141666666667
287,2016-01-31,14.686958333333335,,14.686958333333335
287,2016-02-01,25.416916666666665,,25.416916666666665
287,2016-02-02,62.88004166666667,,62.88004166666667
287,2016-02-03,3.21975,,3.21975
287,2016-02-04,33.36995833333334,,33.36995833333334
287,2016-02-05,35.86445833333333,,35.86445833333333
287,2016-02-06,39.64366666666667,,39.64366666666667
287,2016-02-07,65.55866666666667,,65.55866666666667
287,2016-02-08,26.868875,,26.868875
287,2016-02-09,1.3943750000000001,,1.3943750000000001
287,2016-02-10,1.764125,,1.764125
287,2016-02-11,12.565958333333334,,12.565958333333334
287,2016-02-12,9.499125000000001,,9.499125000000001
287,2016-02-13,19.771083333333333,,19.771083333333333
287,2016-02-14,19.851125,,19.851125
287,2016-02-15,4.714208333333334,,4.714208333333334
287,2016-02-16,1.8419583333333334,,1.8419583333333334
287,2016-02-17,13.214208333333334,,13.214208333333334
287,2016-02-18,81.599125,,81.599125
287,2016-02-19,37.71970833333334,,37.71970833333334
287,2016-02-20,49.99937499999999,,49.99937499999999
287,2016-02-21,19.121875,,19.121875
287,2016-02-22,80.18616666666667,,80.18616666666667
287,2016-02-23,40.05108333333333,,40.05108333333333
287,2016-02-24,6.050833333333333,,6.050833333333333
287,2016-02-25,12.574666666666666,,12.574666666666666
287,2016-02-26,91.47437500000001,,91.47437500000001
287,2016-02-27,83.30666666666666,,83.30666666666666
287,2016-02-28,71.69308333333333,,71.69308333333333
287,2016-02-29,41.14691666666666,,41.14691666666666
287,2016-03-01,64.88425,,64.88425
287,2016-03-02,88.49545833333333,,88.49545833333333
287,2016-03-03,84.81512500000001,,84.81512500000001
287,2016-03-04,78.52316666666667,,78.52316666666667
287,2016-03-05,56.41554166666666,,56.41554166666666
287,2016-03-06,90.77520833333334,,90.77520833333334
287,2016-03-07,52.06383333333333,,52.06383333333333
287,2016-03-08,78.79295833333333,,78.79295833333333
287,2016-03-09,113.91416666666667,,113.91416666666667
287,2016-03-10,14.568416666666666,,14.568416666666666
287,2016-03-11,98.82683333333334,,98.82683333333334
287,2016-03-12,128.47366666666667,,128.47366666666667
287,2016-03-13,91.08179166666667,,91.08179166666667
287,2016-03-14,17.078958333333333,,17.078958333333333
287,2016-03-15,65.31158333333333,,65.31158333333333
287,2016-03-16,109.65216666666667,,109.65216666666667
287,2016-03-17,94.28691666666667,,94.28691666666667
287,2016-03-18,79.277125,,79.277125
287,2016-03-19,76.472,,76.472
287,2016-03-20,107.27283333333332,,107.27283333333332
287,2016-03-21,92.7065,,92.7065
287,2016-03-22,88.695,,88.695
287,2016-03-23,29.18941666666667,,29.18941666666667
287,2016-03-24,76.81349999999999,,76.81349999999999
287,2016-03-25,46.837291666666665,,46.837291666666665
287,2016-03-26,95.51266666666668,,95.51266666666668
287,2016-03-27,95.43487499999999,,95.43487499999999
287,2016-03-28,15.258416666666667,,15.258416666666667
287,2016-03-29,104.37487499999999,,104.37487499999999
287,2016-03-30,105.21749999999999,,105.21749999999999
287,2016-03-31,51.068333333333335,,51.068333333333335
287,2016-04-01,28.529208333333333,,28.529208333333333
287,2016-04-02,58.31633333333334,,58.31633333333334
287,2016-04-03,48.502541666666666,,48.502541666666666
287,2016-04-04,0.27220833333333333,,0.27220833333333333
287,2016-04-05,33.55404166666667,,33.55404166666667
287,2016-04-06,53.54820833333333,,53.54820833333333
287,2016-04-07,38.52608333333333,,38.52608333333333
287,2016-04-08,52.47079166666666,,52.47079166666666
287,2016-04-09,63.01241666666667,,63.01241666666667
287,2016-04-10,113.73820833333333,,113.73820833333333
287,2016-04-11,9.917333333333334,,9.917333333333334
287,2016-04-12,52.224625,,52.224625
287,2016-04-13,94.071625,,94.071625
287,2016-04-14,99.94666666666666,,99.94666666666666
287,2016-04-15,98.43095833333332,,98.43095833333332
287,2016-04-16,96.23375,,96.23375
287,2016-04-17,95.41470833333334,,95.41470833333334
287,2016-04-18,90.56775,,90.56775
287,2016-04-19,80.545625,,80.545625
287,2016-04-20,101.30408333333332,,101.30408333333332
287,2016-04-21,94.98504166666667,,94.98504166666667
287,2016-04-22,44.202625000000005,,44.202625000000005
287,2016-04-23,87.19995833333333,,87.19995833333333
287,2016-04-24,98.3815,,98.3815
287,2016-04-25,42.20525,,42.20525
287,2016-04-26,12.271541666666666,,12.271541666666666
287,2016-04-27,103.28845833333332,,103.28845833333332
287,2016-04-28,86.76704166666667,,86.76704166666667
287,2016-04-29,73.457625,,73.457625
287,2016-04-30,96.41604166666667,,96.41604166666667
287,2016-05-01,22.001416666666668,,22.001416666666668
287,2016-05-02,18.295625,,18.295625
287,2016-05-03,27.425875,,27.425875
287,2016-05-04,15.650458333333333,,15.650458333333333
287,2016-05-05,22.828833333333336,,22.828833333333336
287,2016-05-06,32.824333333333335,,32.824333333333335
287,2016-05-07,56.300125,,56.300125
287,2016-05-08,67.08466666666666,,67.08466666666666
287,2016-05-09,93.20445833333333,,93.20445833333333
287,2016-05-10,91.74220833333334,,91.74220833333334
287,2016-05-11,123.52033333333333,,123.52033333333333
287,2016-05-12,115.29825,,115.29825
287,2016-05-13,22.82625,,22.82625
287,2016-05-14,84.472,,84.472
287,2016-05-15,70.82875,,70.82875
287,2016-05-16,76.101625,,76.101625
287,2016-05-17,83.879,,83.879
287,2016-05-18,112.46220833333332,,112.46220833333332
287,2016-05-19,91.28191666666667,,91.28191666666667
287,2016-05-20,105.80075,,105.80075
287,2016-05-21,54.386208333333336,,54.386208333333336
287,2016-05-22,76.59308333333333,,76.59308333333333
287,2016-05-23,121.57233333333333,,121.57233333333333
287,2016-05-24,40.29558333333333,,40.29558333333333
287,2016-05-25,101.80408333333332,,101.80408333333332
287,2016-05-26,94.54104166666667,,94.54104166666667
287,2016-05-27,97.05458333333333,,97.05458333333333
287,2016-05-28,114.82166666666666,,114.82166666666666
287,2016-05-29,63.61975,,63.61975
287,2016-05-30,104.88404166666668,,104.88404166666668
287,2016-05-31,125.86866666666667,,125.86866666666667
287,2016-06-01,114.05079166666667,,114.05079166666667
287,2016-06-02,98.99416666666667,,98.99416666666667
287,2016-06-03,97.65241666666667,,97.65241666666667
287,2016-06-04,107.23308333333334,,107.23308333333334
287,2016-06-05,27.03979166666667,,27.03979166666667
287,2016-06-06,98.51841666666667,,98.51841666666667
287,2016-06-07,79.76304166666667,,79.76304166666667
287,2016-06-08,103.99404166666666,,103.99404166666666
287,2016-06-09,107.71941666666667,,107.71941666666667
287,2016-06-10,125.71491666666667,,125.71491666666667
287,2016-06-11,39.519625,,39.519625
287,2016-06-12,48.871208333333335,,48.871208333333335
287,2016-06-13,102.099125,,102.099125
287,2016-06-14,126.08470833333332,,126.08470833333332
287,2016-06-15,118.808625,,118.808625
287,2016-06-16,109.87116666666667,,109.87116666666667
287,2016-06-17,121.86216666666667,,121.86216666666667
287,2016-06-18,110.93374999999999,,110.93374999999999
287,2016-06-19,113.71375,,113.71375
287,2016-06-20,84.57045833333333,,84.57045833333333
287,2016-06-21,99.66033333333333,,99.66033333333333
287,2016-06-22,99.33866666666667,,99.33866666666667
287,2016-06-23,116.45066666666666,,116.45066666666666
287,2016-06-24,120.50929166666667,,120.50929166666667
287,2016-06-25,114.41029166666668,,114.41029166666668
287,2016-06-26,112.39983333333333,,112.39983333333333
287,2016-06-27,45.01445833333333,,45.01445833333333
287,2016-06-28,47.496208333333335,,47.496208333333335
287,2016-06-29,109.43116666666667,,109.43116666666667
287,2016-06-30,118.67979166666667,,118.67979166666667
287,2016-07-01,70.03529166666667,,70.03529166666667
287,2016-07-02,107.842625,,107.842625
287,2016-07-03,124.6615,,124.6615
287,2016-07-04,117.31133333333334,,117.31133333333334
287,2016-07-05,93.40504166666666,,93.40504166666666
287,2016-07-06,116.95191666666666,,116.95191666666666
287,2016-07-07,70.23191666666666,,70.23191666666666
287,2016-07-08,81.776125,,81.776125
287,2016-07-09,22.714958333333332,,22.714958333333332
287,2016-07-10,83.875125,,83.875125
287,2016-07-11,106.39725,,106.39725
287,2016-07-12,110.36858333333333,,110.36858333333333
287,2016-07-13,109.78004166666666,,109.78004166666666
287,2016-07-14,70.55354166666667,,70.55354166666667
287,2016-07-15,85.29433333333334,,85.29433333333334
287,2016-07-16,99.60683333333333,,99.60683333333333
287,2016-07-17,105.76966666666668,,105.76966666666668
287,2016-07-18,72.89591666666666,,72.89591666666666
287,2016-07-19,92.60554166666667,,92.60554166666667
287,2016-07-20,110.88945833333334,,110.88945833333334
287,2016-07-21,112.36345833333333,,112.36345833333333
287,2016-07-22,97.185,,97.185
287,2016-07-23,95.49758333333334,,95.49758333333334
287,2016-07-24,103.95333333333333,,103.95333333333333
287,2016-07-25,66.02625,,66.02625
287,2016-07-26,95.92458333333333,,95.92458333333333
287,2016-07-27,108.07179166666667,,108.07179166666667
287,2016-07-28,81.87641666666667,,81.87641666666667
287,2016-07-29,98.65508333333334,,98.65508333333334
287,2016-07-30,62.00662500000001,,62.00662500000001
287,2016-07-31,21.933666666666667,,21.933666666666667
287,2016-08-01,32.875125000000004,,32.875125000000004
287,2016-08-02,60.890791666666665,,60.890791666666665
287,2016-08-03,105.39204166666667,,105.39204166666667
287,2016-08-04,108.46504166666666,,108.46504166666666
287,2016-08-05,109.08616666666667,,109.08616666666667
287,2016-08-06,100.79837500000001,,100.79837500000001
287,2016-08-07,92.05225,,92.05225
287,2016-08-08,111.0835,,111.0835
287,2016-08-09,108.2475,,108.2475
287,2016-08-10,53.659,,53.659
287,2016-08-11,91.62504166666668,,91.62504166666668
287,2016-08-12,72.28141666666666,,72.28141666666666
287,2016-08-13,88.55095833333333,,88.55095833333333
287,2016-08-14,60.70708333333334,,60.70708333333334
287,2016-08-15,85.46633333333334,,85.46633333333334
287,2016-08-16,46.786624999999994,,46.786624999999994
287,2016-08-17,89.37770833333333,,89.37770833333333
287,2016-08-18,98.88683333333334,,98.88683333333334
287,2016-08-19,94.86595833333332,,94.86595833333332
287,2016-08-20,107.97541666666666,,107.97541666666666
287,2016-08-21,59.18625,,59.18625
287,2016-08-22,99.75920833333333,,99.75920833333333
287,2016-08-23,103.77370833333333,,103.77370833333333
287,2016-08-24,99.52354166666667,,99.52354166666667
287,2016-08-25,33.153875,,33.153875
287,2016-08-26,86.35425,,86.35425
287,2016-08-27,93.27745833333334,,93.27745833333334
287,2016-08-28,92.2555,,92.2555
287,2016-08-29,104.169375,,104.169375
287,2016-08-30,102.21758333333334,,102.21758333333334
287,2016-08-31,30.350416666666664,,30.350416666666664
287,2016-09-01,69.54441666666666,,69.54441666666666
287,2016-09-02,99.31775,,99.31775
287,2016-09-03,100.688875,,100.688875
287,2016-09-04,98.850375,,98.850375
287,2016-09-05,102.12904166666668,,102.12904166666668
287,2016-09-06,83.592625,,83.592625
287,2016-09-07,93.63683333333334,,93.63683333333334
287,2016-09-08,61.735749999999996,,61.735749999999996
287,2016-09-09,74.34775,,74.34775
287,2016-09-10,72.67329166666667,,72.67329166666667
287,2016-09-11,82.659,,82.659
287,2016-09-12,99.77091666666666,,99.77091666666666
287,2016-09-13,94.24874999999999,,94.24874999999999
287,2016-09-14,57.71233333333333,,57.71233333333333
287,2016-09-15,101.02616666666667,,101.02616666666667
287,2016-09-16,98.69545833333332,,98.69545833333332
287,2016-09-17,90.17729166666668,,90.17729166666668
287,2016-09-18,23.65908333333333,,23.65908333333333
287,2016-09-19,28.919375000000002,,28.919375000000002
287,2016-09-20,63.98708333333334,,63.98708333333334
287,2016-09-21,57.75008333333333,,57.75008333333333
287,2016-09-22,60.019625,,60.019625
287,2016-09-23,32.01825,,32.01825
287,2016-09-24,56.778708333333334,,56.778708333333334
287,2016-09-25,64.218875,,64.218875
287,2016-09-26,59.43891666666667,,59.43891666666667
287,2016-09-27,80.98979166666668,,80.98979166666668
287,2016-09-28,64.84004166666666,,64.84004166666666
287,2016-09-29,67.02754166666666,,67.02754166666666
287,2016-09-30,40.43629166666667,,40.43629166666667
287,2016-10-01,27.985874999999997,,27.985874999999997
287,2016-10-02,23.002708333333334,,23.002708333333334
287,2016-10-03,53.726625000000006,,53.726625000000006
287,2016-10-04,29.241083333333332,,29.241083333333332
287,2016-10-05,82.47404166666666,,82.47404166666666
287,2016-10-06,84.64991666666667,,84.64991666666667
287,2016-10-07,83.808875,,83.808875
287,2016-10-08,28.431083333333333,,28.431083333333333
287,2016-10-09,32.047000000000004,,32.047000000000004
287,2016-10-10,87.3035,,87.3035
287,2016-10-11,79.9195,,79.9195
287,2016-10-12,81.80220833333333,,81.80220833333333
287,2016-10-13,29.043083333333332,,29.043083333333332
287,2016-10-14,77.40245833333334,,77.40245833333334
287,2016-10-15,77.01704166666667,,77.01704166666667
287,2016-10-16,29.958416666666665,,29.958416666666665
287,2016-10-17,11.299583333333333,,11.299583333333333
287,2016-10-18,67.62116666666667,,67.62116666666667
287,2016-10-19,72.69679166666667,,72.69679166666667
287,2016-10-20,9.221458333333333,,9.221458333333333
287,2016-10-21,33.76716666666667,,33.76716666666667
287,2016-10-22,5.757916666666667,,5.757916666666667
287,2016-10-23,74.80745833333333,,74.80745833333333
287,2016-10-24,33.97933333333334,,33.97933333333334
287,2016-10-25,48.375166666666665,,48.375166666666665
287,2016-10-26,46.284124999999996,,46.284124999999996
287,2016-10-27,7.354375,,7.354375
287,2016-10-28,26.200708333333335,,26.200708333333335
287,2016-10-29,7.567916666666666,,7.567916666666666
287,2016-10-30,22.81533333333333,,22.81533333333333
287,2016-10-31,57.13575,,57.13575
287,2016-11-01,65.15129166666667,,65.15129166666667
287,2016-11-02,25.091333333333335,,25.091333333333335
287,2016-11-03,7.6825,,7.6825
287,2016-11-04,65.12258333333334,,65.12258333333334
287,2016-11-05,32.198125,,32.198125
287,2016-11-06,43.44825,,43.44825
287,2016-11-07,62.554916666666664,,62.554916666666664
287,2016-11-08,60.50029166666667,,60.50029166666667
287,2016-11-09,7.523666666666667,,7.523666666666667
287,2016-11-10,47.97154166666667,,47.97154166666667
287,2016-11-11,42.437625000000004,,42.437625000000004
287,2016-11-12,59.11216666666667,,59.11216666666667
287,2016-11-13,54.310125,,54.310125
287,2016-11-14,49.622625,,49.622625
287,2016-11-15,7.739833333333333,,7.739833333333333
287,2016-11-16,18.48454166666667,,18.48454166666667
287,2016-11-17,37.893499999999996,,37.893499999999996
287,2016-11-18,51.330999999999996,,51.330999999999996
287,2016-11-19,52.586125,,52.586125
287,2016-11-20,0.9325,,0.9325
287,2016-11-21,1.9975833333333333,,1.9975833333333333
287,2016-11-22,5.25025,,5.25025
287,2016-11-23,20.422124999999998,,20.422124999999998
287,2016-11-24,10.750208333333333,,10.750208333333333
287,2016-11-25,14.104416666666665,,14.104416666666665
287,2016-11-26,14.140833333333333,,14.140833333333333
287,2016-11-27,16.38825,,16.38825
287,2016-11-28,43.898625,,43.898625
287,2016-11-29,1.9950416666666666,,1.9950416666666666
287,2016-11-30,7.307541666666666,,7.307541666666666
287,2016-12-01,6.515791666666666,,6.515791666666666
287,2016-12-02,24.50808333333333,,24.50808333333333
287,2016-12-03,30.916833333333333,,30.916833333333333
287,2016-12-04,19.055,,19.055
287,2016-12-05,2.9454583333333333,,2.9454583333333333
287,2016-12-06,33.84395833333333,,33.84395833333333
287,2016-12-07,9.234666666666667,,9.234666666666667
287,2016-12-08,19.015874999999998,,19.015874999999998
287,2016-12-09,40.549749999999996,,40.549749999999996
287,2016-12-10,44.346624999999996,,44.346624999999996
287,2016-12-11,33.51591666666666,,33.51591666666666
287,2016-12-12,0.2840416666666667,,0.2840416666666667
287,2016-12-13,10.044500000000001,,10.044500000000001
287,2016-12-14,13.987208333333333,,13.987208333333333
287,2016-12-15,20.182583333333334,,20.182583333333334
287,2016-12-16,21.226833333333335,,21.226833333333335
287,2016-12-17,0.20604166666666668,,0.20604166666666668
287,2016-12-18,4.299666666666666,,4.299666666666666
287,2016-12-19,46.50545833333334,,46.50545833333334
287,2016-12-20,29.422124999999998,,29.422124999999998
287,2016-12-21,16.706083333333336,,16.706083333333336
287,2016-12-22,0.560125,,0.560125
287,2016-12-23,21.388333333333335,,21.388333333333335
287,2016-12-24,8.057458333333333,,8.057458333333333
287,2016-12-25,37.791916666666665,,37.791916666666665
287,2016-12-26,13.565416666666666,,13.565416666666666
287,2016-12-27,12.599208333333332,,12.599208333333332
287,2016-12-28,22.239874999999998,,22.239874999999998
287,2016-12-29,0.9481666666666667,,0.9481666666666667
287,2016-12-30,0.7788750000000001,,0.7788750000000001
287,2016-12-31,0.6642916666666666,,0.6642916666666666
287,2017-01-01,22.82575,,22.82575
287,2017-01-02,21.67470833333333,,21.67470833333333
287,2017-01-03,5.494916666666666,,5.494916666666666
287,2017-01-04,13.528875,,13.528875
287,2017-01-05,32.18779166666666,,32.18779166666666
287,2017-01-06,31.922166666666666,,31.922166666666666
287,2017-01-07,20.375333333333334,,20.375333333333334
287,2017-01-08,18.104375,,18.104375
287,2017-01-09,25.312875000000002,,25.312875000000002
287,2017-01-10,16.302375,,16.302375
287,2017-01-11,43.69808333333333,,43.69808333333333
287,2017-01-12,5.810125,,5.810125
287,2017-01-13,38.48716666666667,,38.48716666666667
287,2017-01-14,26.581,,26.581
287,2017-01-15,52.896125000000005,,52.896125000000005
287,2017-01-16,52.98983333333334,,52.98983333333334
287,2017-01-17,13.93775,,13.93775
287,2017-01-18,4.97675,,4.97675
287,2017-01-19,18.073125,,18.073125
287,2017-01-20,10.135708333333334,,10.135708333333334
287,2017-01-21,21.541916666666665,,21.541916666666665
287,2017-01-22,6.284083333333334,,6.284083333333334
287,2017-01-23,16.140916666666666,,16.140916666666666
287,2017-01-24,1.091375,,1.091375
287,2017-01-25,1.685125,,1.685125
287,2017-01-26,17.71108333333333,,17.71108333333333
287,2017-01-27,24.450791666666664,,24.450791666666664
287,2017-01-28,19.489791666666665,,19.489791666666665
287,2017-01-29,29.609583333333333,,29.609583333333333
287,2017-01-30,55.435125,,55.435125
287,2017-01-31,21.98725,,21.98725
287,2017-02-01,3.731958333333333,,3.731958333333333
287,2017-02-02,40.961125,,40.961125
287,2017-02-03,40.01058333333334,,40.01058333333334
287,2017-02-04,51.21895833333334,,51.21895833333334
287,2017-02-05,29.890874999999998,,29.890874999999998
287,2017-02-06,38.083625,,38.083625
287,2017-02-07,5.703333333333333,,5.703333333333333
287,2017-02-08,26.64075,,26.64075
287,2017-02-09,0.12,,0.12
287,2017-02-10,0.9637083333333334,,0.9637083333333334
287,2017-02-11,0.21116666666666664,,0.21116666666666664
287,2017-02-12,0.22158333333333333,,0.22158333333333333
287,2017-02-13,0.21637499999999998,,0.21637499999999998
287,2017-02-14,0.20854166666666665,,0.20854166666666665
287,2017-02-15,0.22154166666666666,,0.22154166666666666
287,2017-02-16,0.48970833333333336,,0.48970833333333336
287,2017-02-17,0.9559166666666666,,0.9559166666666666
287,2017-02-18,1.5810833333333332,,1.5810833333333332
287,2017-02-19,39.91175,,39.91175
287,2017-02-20,83.706,,83.706
287,2017-02-21,57.65645833333334,,57.65645833333334
287,2017-02-22,70.742375,,70.742375
287,2017-02-23,66.13308333333333,,66.13308333333333
287,2017-02-24,58.03145833333334,,58.03145833333334
287,2017-02-25,42.91166666666667,,42.91166666666667
287,2017-02-26,42.67733333333334,,42.67733333333334
287,2017-02-27,71.18775000000001,,71.18775000000001
287,2017-02-28,61.312625,,61.312625
287,2017-03-01,25.312708333333333,,25.312708333333333
287,2017-03-02,65.61749999999999,,65.61749999999999
287,2017-03-03,78.67212500000001,,78.67212500000001
287,2017-03-04,97.40895833333333,,97.40895833333333
287,2017-03-05,99.13825000000001,,99.13825000000001